Theta_e
311 313 314 314 313 312 308 309 308 312 311 306 301 303 306 307 306 306 305 305 305 305 305 305 306 307 307 309 311 311 311 310 312 317 318 319 316 315 315 317 319 318 320 322
311 313 313 314 313 310 307 310 311 311 311 305 303 304 306 306 307 306 306 306 306 305 306 305 306 307 308 309 309 313 317 315 312 319 317 316 318 320 318 312 313 321 323 323
312 312 313 313 312 309 307 311 306 309 309 307 305 305 306 308 308 307 306 306 306 306 306 305 306 307 308 308 308 316 313 313 311 312 313 314 318 318 321 316 316 317 321 324
312 312 313 312 311 308 307 309 305 306 303 305 304 306 307 309 309 309 306 305 306 307 307 306 306 307 306 307 311 311 310 313 308 311 313 315 317 318 321 320 318 320 320 322
312 312 312 311 310 308 309 308 307 307 305 305 304 306 308 311 310 308 306 307 308 306 305 305 306 307 307 307 306 307 306 313 312 317 319 321 324 324 323 324 324 319 320 324
312 313 312 309 308 308 308 309 307 307 303 302 305 309 310 310 308 308 308 307 307 308 307 308 309 309 308 308 308 308 308 310 312 317 319 320 325 330 330 329 327 324 321 320
311 313 311 309 307 307 306 306 307 306 304 302 305 306 308 309 308 308 308 308 308 308 308 309 309 308 307 306 306 308 308 308 310 314 321 326 323 326 330 335 338 336 338 336
311 313 309 307 307 307 308 307 306 306 305 304 305 307 308 308 308 307 308 308 307 308 309 306 307 307 308 308 308 305 307 308 311 316 318 322 328 325 324 330 332 334 335 336
313 312 308 307 307 307 307 307 307 305 304 305 305 305 306 305 305 305 307 307 309 310 309 310 310 310 308 310 308 305 306 307 310 312 318 333 325 320 321 325 335 331 333 334
313 310 308 307 307 307 306 307 306 306 305 305 305 304 304 307 306 303 305 307 310 309 305 310 309 308 311 313 312 308 309 309 313 313 318 325 318 319 326 336 333 328 331 333
314 310 307 306 306 306 306 307 306 305 305 304 305 306 306 307 305 303 307 307 309 309 309 309 311 310 315 317 315 314 309 310 312 312 322 325 318 318 322 320 325 326 329 333
313 310 307 307 306 306 305 306 305 305 305 304 305 306 306 307 308 306 307 308 307 308 304 304 308 311 314 317 316 314 316 315 321 319 319 317 318 317 318 319 321 323 323 330
313 310 307 307 307 306 305 305 304 305 304 304 306 309 308 309 309 309 308 309 307 309 308 306 304 309 312 317 316 316 315 312 314 315 317 314 317 317 317 318 319 321 321 322
313 310 307 307 307 307 306 306 305 304 304 303 307 307 309 309 310 310 309 309 309 308 311 309 307 309 310 314 314 314 313 312 312 315 314 316 317 316 316 318 320 319 322 321
313 310 307 306 307 308 308 308 307 305 304 303 305 308 308 309 310 310 311 310 309 309 309 310 310 311 312 310 312 312 313 314 315 316 312 313 314 314 316 318 319 320 323 322
312 309 307 307 308 308 308 309 308 306 304 304 301 308 310 310 311 311 312 312 308 310 310 310 310 310 309 312 313 309 309 311 313 313 312 313 313 314 316 318 319 320 322 322
312 309 307 307 308 308 308 307 306 306 305 306 305 306 310 309 310 311 312 312 312 312 312 311 312 311 308 308 310 308 310 310 312 311 312 313 313 313 314 320 319 320 320 321
310 309 307 307 308 309 309 309 306 306 306 307 306 305 308 309 311 311 311 311 310 310 310 310 310 309 308 308 308 308 308 310 310 312 312 312 313 314 314 317 321 319 320 320
309 308 309 309 309 310 311 309 306 305 307 307 309 299 305 309 311 311 311 311 308 310 309 309 309 310 310 309 308 309 309 308 310 311 312 313 313 314 314 316 318 320 318 318
309 309 309 310 312 311 310 306 307 307 307 307 305 309 307 309 310 309 309 309 305 308 307 309 307 310 310 309 309 309 310 308 310 310 311 312 312 312 314 315 317 318 319 318
310 311 312 313 312 309 309 310 309 310 308 309 310 310 308 310 308 307 309 305 305 308 310 308 309 307 308 308 310 310 309 310 310 310 311 310 310 310 312 314 316 316 318 319
313 313 313 312 310 310 311 311 312 311 313 311 311 310 310 310 311 310 309 309 309 309 309 307 309 305 309 308 309 310 308 307 307 308 308 308 308 308 310 312 314 315 316 318
314 314 313 312 312 311 315 313 310 310 315 313 311 309 310 310 311 309 307 312 313 310 311 312 309 308 308 307 309 309 306 305 306 306 307 307 306 307 309 311 313 313 314 316
314 315 312 316 319 316 318 316 316 317 316 314 312 310 310 311 311 310 312 309 308 309 310 311 308 308 307 306 307 309 307 304 303 303 303 304 305 306 307 308 309 310 310 311
315 316 312 317 317 318 317 316 316 317 316 313 312 313 312 312 310 309 310 309 309 306 304 309 309 308 307 305 306 307 308 305 304 303 302 301 301 302 303 303 305 307 308 308
316 315 316 316 315 315 315 315 314 315 315 315 315 312 313 312 312 310 309 309 303 304 308 310 309 306 306 306 304 304 306 308 306 305 304 303 302 301 300 300 300 300 300 303
318 316 316 316 314 314 314 314 314 314 315 317 316 317 315 312 314 312 308 307 308 310 310 309 305 306 305 303 303 303 304 308 308 307 307 307 305 303 302 301 300 300 300 299
Wind_Speed
25 25 26 25 28 25 19 6 2 2 6 3 3 1 2 6 5 7 6 4 3 3 3 5 6 4 4 16 15 5 4 1 4 8 3 3 6 7 7 5 5 1 5 7
23 23 24 24 23 21 21 9 5 10 1 3 3 6 5 5 2 4 3 2 3 1 2 4 2 5 14 20 11 7 7 3 5 2 5 6 6 3 3 2 3 7 6 7
23 22 22 20 18 14 14 6 4 6 10 6 3 4 4 4 7 1 3 3 3 4 3 1 4 4 3 18 14 10 2 2 4 4 7 4 4 5 2 3 3 4 6 5
21 21 21 19 13 10 7 6 2 3 3 4 4 2 2 3 5 6 5 2 3 4 1 3 3 2 5 8 5 8 4 3 4 7 8 4 5 7 5 5 6 5 7 9
21 20 20 15 10 6 5 4 4 4 3 7 4 5 5 5 4 3 6 2 3 4 5 6 6 2 1 4 5 6 5 2 6 5 5 3 4 8 8 8 6 6 5 8
19 19 18 12 9 6 2 2 2 3 5 6 2 2 3 4 5 5 5 6 2 3 2 7 10 10 9 7 2 2 2 2 5 5 4 7 2 4 3 4 6 4 6 9
16 17 14 9 6 5 4 2 4 3 2 3 1 3 3 8 6 3 5 8 3 5 14 12 11 14 17 16 15 14 2 2 2 4 4 4 5 6 4 6 9 11 8 11
15 15 10 7 4 2 1 2 2 2 2 2 3 7 3 8 8 3 4 4 14 13 4 1 3 3 3 9 14 15 12 4 2 2 2 2 4 7 6 4 4 13 13 15
15 13 8 5 3 2 2 2 0 0 1 1 3 4 3 2 2 5 4 8 8 2 2 1 5 4 4 4 3 8 12 6 2 3 0 2 4 17 21 7 1 14 16 13
14 10 7 3 3 2 3 1 1 1 2 2 2 2 3 5 2 3 6 10 2 4 2 4 4 4 4 3 4 8 6 4 8 5 1 3 14 23 9 4 5 23 19 18
12 8 4 5 5 4 1 2 1 3 3 9 5 3 7 7 5 1 6 6 3 2 2 2 2 3 2 2 3 2 5 7 5 3 4 2 28 10 7 11 13 12 20 20
9 7 4 3 4 3 0 0 1 4 8 7 12 13 14 12 8 13 3 5 7 3 1 3 3 2 2 3 2 4 4 2 3 3 4 2 11 11 18 25 13 17 23 21
6 3 2 4 3 2 2 1 1 4 5 8 5 3 7 6 8 9 6 8 4 6 3 4 2 3 3 2 4 3 3 10 3 2 1 8 15 28 33 32 30 17 19 24
4 1 4 5 7 6 5 4 3 3 3 2 3 5 1 7 11 15 16 24 26 19 2 1 0 2 8 5 3 5 5 6 6 3 6 11 17 32 31 34 34 24 11 21
3 2 6 8 8 3 1 1 3 3 3 3 9 6 1 5 12 12 15 18 18 0 7 3 2 3 4 4 3 6 12 4 3 3 6 7 10 24 28 32 34 31 12 18
4 5 7 9 8 2 2 3 1 3 2 4 4 7 5 13 8 7 12 11 3 4 3 3 6 9 3 3 3 12 19 10 8 6 13 5 13 4 19 25 27 28 20 17
5 7 7 9 6 2 1 2 2 3 1 2 6 9 5 13 6 10 13 15 7 4 4 5 6 8 7 2 3 18 17 7 8 12 10 3 16 15 19 13 20 19 19 18
7 8 7 6 4 3 3 2 2 4 1 2 2 4 6 10 6 5 11 8 11 12 5 4 5 4 5 3 9 16 15 11 16 15 9 8 11 14 14 12 11 18 18 18
10 9 7 5 3 3 2 2 2 5 4 3 2 2 3 8 6 5 4 5 4 6 5 5 5 3 4 2 9 17 18 13 17 13 10 12 13 14 14 15 11 14 19 19
11 8 4 3 3 3 2 4 3 4 3 4 4 2 2 4 5 3 2 4 1 2 2 4 3 3 4 6 11 14 20 14 16 15 18 17 15 15 14 15 15 12 15 18
7 3 3 3 4 3 2 3 4 4 3 5 4 4 1 1 2 0 3 2 2 2 2 2 2 3 6 13 9 12 16 14 11 10 8 11 11 10 9 9 13 15 16 16
3 1 2 3 4 3 3 3 3 4 3 7 4 5 3 1 1 1 2 2 1 1 3 3 2 3 5 8 9 12 15 18 17 16 14 12 11 12 10 9 8 11 14 13
3 2 2 2 3 1 3 2 2 2 6 9 7 2 4 3 1 3 2 1 2 2 2 1 2 5 2 6 8 9 15 17 17 20 22 19 17 16 15 13 12 11 11 9
1 2 2 2 3 3 2 4 3 4 3 14 12 6 3 3 2 2 3 1 2 2 0 1 3 3 1 4 7 7 12 14 17 20 23 23 23 24 24 23 19 17 18 16
1 1 2 4 4 2 2 3 3 1 6 18 6 4 3 1 3 2 3 2 1 3 3 3 7 4 1 3 4 7 6 7 12 15 21 24 25 25 25 25 24 24 23 22
3 4 3 4 2 3 3 3 4 1 10 11 4 3 2 1 3 3 3 5 3 3 3 11 8 2 1 3 3 5 4 3 7 11 12 15 19 22 25 27 28 29 27 25
3 4 7 4 3 2 3 3 2 5 5 1 2 1 2 4 1 3 2 3 2 9 17 13 7 5 1 5 6 7 6 2 4 9 14 12 12 12 14 20 22 25 26 26
Wind_Direction
342 344 349 347 345 349 3 14 60 22 251 42 27 52 286 347 350 39 49 82 78 79 45 359 354 353 54 12 12 5 325 150 286 237 266 202 155 187 163 136 226 217 162 266
341 342 347 347 346 352 0 354 335 21 62 77 347 319 330 8 59 19 51 89 88 80 67 5 337 347 338 8 16 2 340 340 338 39 20 19 59 30 58 124 89 189 153 252
339 341 347 345 347 356 0 3 9 15 61 63 96 8 322 341 344 199 143 152 86 51 37 59 315 306 322 349 336 330 200 241 185 180 252 223 303 314 287 138 125 176 212 257
338 340 345 345 349 1 8 15 39 23 341 342 349 255 325 358 8 336 9 40 151 149 227 319 225 262 324 313 21 3 73 260 213 247 243 217 238 256 266 197 222 182 226 200
339 342 346 345 357 14 33 28 7 4 339 322 336 358 2 15 339 319 334 215 233 159 174 206 262 206 114 254 343 15 347 279 346 274 263 248 244 239 235 229 237 237 242 238
338 345 346 347 5 23 51 50 334 337 353 348 61 28 2 2 348 246 34 323 11 341 295 288 285 273 243 221 212 327 313 69 21 264 294 296 194 328 333 282 37 307 183 226
340 347 348 355 15 34 26 3 357 18 315 31 4 326 341 328 323 272 7 51 58 288 297 297 279 261 244 223 233 194 191 79 146 259 330 189 170 30 13 114 65 11 328 320
343 348 353 1 28 35 355 321 39 36 298 335 290 345 312 300 326 298 240 250 330 300 286 298 318 315 292 227 222 199 188 146 259 213 240 290 6 10 326 5 317 14 334 331
348 348 357 17 52 44 36 16 321 14 309 246 317 300 311 308 313 322 259 344 345 96 76 284 221 225 230 243 250 175 172 191 67 316 138 138 274 323 308 194 263 359 350 338
350 349 5 60 96 92 72 97 221 230 271 278 280 288 291 300 318 255 297 345 333 16 212 233 186 238 244 261 191 149 127 135 214 249 204 27 341 326 324 62 315 331 345 357
349 348 20 96 117 116 112 88 255 247 285 283 260 227 227 248 262 228 308 346 255 244 274 273 197 232 271 263 37 31 139 159 183 186 76 359 349 354 55 321 339 355 15 16
345 351 38 119 129 126 286 214 263 281 257 267 277 275 263 265 287 271 260 252 288 126 303 248 279 281 281 296 94 24 73 333 112 83 146 347 22 38 6 7 350 22 33 28
333 340 97 122 113 105 132 65 348 293 307 296 277 222 317 325 326 294 269 289 314 252 220 220 234 253 251 64 57 82 40 21 68 125 24 333 35 18 12 12 15 5 40 42
313 296 140 126 115 99 93 66 53 18 319 304 262 292 216 331 326 324 291 281 289 294 312 298 329 293 346 46 77 66 360 350 334 46 352 353 18 14 358 17 27 23 26 49
272 214 157 145 134 140 61 313 340 338 346 295 297 305 28 349 347 315 300 292 283 173 357 338 342 9 14 8 42 35 356 1 11 53 341 324 298 350 2 27 25 25 35 35
233 195 169 162 163 167 290 300 306 308 284 318 322 328 3 6 7 14 22 15 86 113 91 5 8 27 57 57 66 350 351 15 25 349 332 320 340 1 11 19 26 33 39 25
211 186 172 171 169 189 285 285 316 225 112 308 306 321 347 350 8 31 41 50 84 73 108 34 27 25 44 43 49 332 360 26 17 4 7 332 12 355 4 2 21 24 36 51
181 173 161 161 172 234 263 264 273 178 274 288 302 281 329 9 9 14 12 28 39 33 66 3 28 37 51 49 350 2 9 27 22 23 23 8 9 11 14 10 1 5 16 13
163 159 150 177 224 231 207 236 208 196 257 285 249 167 280 349 30 7 9 24 48 40 32 15 25 9 46 310 4 2 2 1 1 18 32 23 13 15 14 16 16 343 351 356
151 148 179 202 207 209 233 165 193 215 220 241 244 232 277 331 9 35 13 31 61 56 337 358 42 6 309 311 0 360 356 358 1 6 11 10 14 6 20 14 12 11 357 346
152 185 201 210 200 182 191 210 205 186 235 215 237 255 226 22 79 250 32 154 1 82 300 79 27 332 325 28 25 23 23 30 25 35 24 5 6 358 356 4 6 5 6 0
161 166 212 197 192 191 205 201 187 199 236 182 190 219 221 153 31 124 24 92 74 137 143 96 114 261 336 23 33 32 28 29 37 35 37 30 16 359 356 8 10 1 356 353
162 241 238 197 175 253 205 236 279 249 190 175 166 178 179 176 189 83 79 87 62 105 51 90 199 264 21 46 45 48 37 40 49 52 54 54 46 40 41 33 22 19 10 6
208 239 306 237 176 249 236 206 249 261 177 168 161 153 174 162 140 71 91 2 50 56 319 109 253 234 30 43 54 56 46 56 58 59 58 57 55 51 49 50 47 39 35 28
245 242 238 230 323 195 213 319 319 272 148 160 124 111 121 50 104 76 109 77 163 205 198 165 200 223 191 52 47 39 47 61 62 63 60 58 58 58 55 48 43 44 44 39
236 225 260 318 36 316 289 291 313 336 170 173 138 176 177 152 145 111 131 146 213 236 180 167 195 250 125 8 31 5 4 36 51 54 51 52 55 54 53 54 54 48 40 32
239 245 223 228 233 308 347 279 294 354 173 209 229 292 131 135 105 76 132 163 199 144 143 154 148 155 310 2 3 359 351 355 34 27 22 15 19 31 42 51 52 49 49 44